Location: Newark
(48.2308°N, 120.8549°W)
Time: 01:14:15
(UTC+00:00)

FENGYUN 1C DEB - Pass Details

Date: 01 February 2022
Orbit: 822 x 948 km, 99.2° (Epoch: 28 May)

Event Time Altitude Azimuth Distance (km) Brightness Sun altitude
Rises 03:16:50 0° 164° (SSE) 3,612 ? -22.6°
Reaches altitude 10° 03:19:16 10° 165° (SSE) 2,670 ? -23.0°
Maximum altitude 03:25:17 85° 253° (WSW) 956 ? -24.0°
Drops below altitude 10° 03:31:16 10° 344° (NNW) 2,649 ? -25.0°
Sets 03:33:41 0° 345° (NNW) 3,582 ? -25.4°
